Location: Peterborough
(44.3091°N, 78.3197°W)
Time: 00:50:14
(UTC-04:00)

SR - Pass Details

Date: 26 March 2023
Orbit: 581 x 867 km, 66.7° (Epoch: 02 June)

Event Time Altitude Azimuth Distance (km) Brightness Sun altitude
Rises 10:06:44 0° 341° (NNW) 2,809 ? 30.3°
Reaches altitude 10° 10:10:09 10° 10° (N) 1,916 ? 30.9°
Maximum altitude 10:12:09 13° 38° (NE) 1,741 ? 31.2°
Drops below altitude 10° 10:14:10 10° 66° (ENE) 1,944 ? 31.5°
Sets 10:17:40 0° 95° (E) 2,889 ? 32.0°
